Location: Gipe Farm
(40.9466°N, 95.5370°W)
Time: 05:14:29
(UTC-05:00)

Daily predictions for brighter satellites

Satellite Brightness Start Highest point End
(mag) Time Altitude Azimuth Time Altitude Azimuth Time Altitude Azimuth
ATLAS CENTAUR R/B 4.4 00:07:39 59° E 00:07:39 59° E 00:27:07 10° NE
Cosmos 2278 Rocket 4.3 00:20:59 10° N 00:23:57 18° NE 00:23:57 18° NE
SL-16 R/B 4.0 00:39:09 26° NW 00:39:09 26° NW 00:43:28 10° N
Cosmos 1844 Rocket 4.5 00:49:33 10° NNW 00:52:09 28° N 00:52:09 28° N
Cosmos 2360 Rocket 3.9 00:58:48 28° N 00:58:48 28° N 01:01:46 10° NNE
Cosmos 2219 Rocket 4.2 01:21:35 22° NNE 01:21:35 22° NNE 01:23:31 10° NNE
Cosmos 2333 Rocket 4.1 01:33:46 25° NE 01:33:46 25° NE 01:36:04 10° NNE
Cosmos 2237 Rocket 4.2 01:37:53 24° NE 01:37:53 24° NE 01:40:04 10° NNE
CZ-4C R/B 4.5 02:01:21 17° ENE 02:01:21 17° ENE 02:02:53 10° NE
Cosmos 2278 Rocket 4.2 02:03:55 10° NNW 02:05:45 21° NNW 02:05:45 21° NNW
ATLAS 3B R/B 3.3 02:41:56 56° NW 02:41:56 56° NW 02:48:45 10° NNE
Cosmos 2369 Rocket 4.4 02:49:27 10° N 02:53:37 21° NE 02:57:47 10° E
COSMOS 2455 4.2 02:58:19 30° NNW 02:58:19 30° NNW 03:02:44 10° NNE
Cosmos 2219 Rocket 4.2 03:03:18 18° NW 03:03:18 18° NW 03:06:21 10° N
SL-16 R/B 3.2 03:14:39 39° NNW 03:14:39 39° NNW 03:18:39 10° NNE
Cosmos 2333 Rocket 4.1 03:15:47 20° NW 03:15:47 20° NW 03:19:22 10° N
Cosmos 1607 4.4 03:16:53 54° NNW 03:16:53 54° NNW 03:22:02 10° NNE
ARIANE 5 R/B 4.0 03:11:22 10° NE 03:15:40 30° E 03:15:40 30° E
Cosmos 2237 Rocket 4.0 03:19:43 21° NW 03:19:43 21° NW 03:23:15 10° N
BREEZE-M DEB (TANK) 4.2 03:21:55 34° N 03:21:55 34° N 03:25:20 10° NE
Resurs 1-4 Rocket 3.6 03:18:49 10° NE 03:23:19 28° E 03:23:37 28° ESE
USA 234 3.3 03:26:03 10° NE 03:32:34 66° SE 03:32:37 66° SE
USA 238 DEB 4.1 03:32:15 52° WNW 03:32:35 53° NW 03:39:29 10° NNE
USA 238 4.1 03:32:21 53° WNW 03:32:41 53° NW 03:39:36 10° NNE
Cosmos 158 Rocket 4.5 03:38:59 54° NNE 03:38:59 54° NNE 03:42:52 10° NNE
Okean O Rocket 4.4 03:38:34 10° ENE 03:40:02 11° E 03:41:28 10° ESE
IRAS Rocket 4.3 03:35:46 10° NNE 03:41:03 76° NE 03:41:03 76° NE
BREEZE-M DEB (TANK) 3.8 03:43:46 57° W 03:45:16 71° NW 03:49:20 10° NE
CZ-4C R/B 2.9 03:46:31 45° NW 03:46:31 45° NW 03:52:02 10° NNE
Cosmos 2251 Rocket 3.7 03:48:47 65° E 03:48:47 65° E 03:53:40 10° NNE
NOSS 3-2 (A) 3.3 03:48:27 83° W 03:48:37 84° NW 03:55:18 10° NE
ATLAS 5 CENTAUR R/B 3.3 03:51:30 27° ESE 03:51:41 27° ESE 03:55:56 10° ENE
Cosmos 1110 Rocket 4.1 03:46:31 10° NNW 03:51:45 70° ENE 03:51:45 70° ENE
Cosmos 1603 4.0 03:56:00 56° NW 03:56:00 56° NW 04:01:17 10° NNE
NOSS 3-3 (A) 4.4 03:51:20 10° NW 03:58:51 90° SW 04:06:50 10° SSE
NOSS 3-3 (C) 4.4 03:51:26 10° NW 03:58:57 90° ENE 04:06:56 10° SSE
In-Cosmos 22 Rocket 4.0 03:57:25 10° N 04:02:31 81° NW 04:02:31 81° NW
NOSS 3-2 (C) 3.3 04:04:09 70° WSW 04:04:53 81° NW 04:11:34 10° NNE
SL-16 R/B 2.4 04:05:49 48° SSE 04:07:42 89° WSW 04:13:56 10° NNW
S3M 4.3 04:07:52 48° WNW 04:07:52 48° WNW 04:13:53 10° N
CENTAUR R/B 3.9 04:05:36 21° SSE 04:08:17 29° ESE 04:13:48 10° NE
Cosmos 1892 3.7 04:05:31 10° N 04:08:52 45° ENE 04:08:52 45° ENE
Cosmos 724 4.5 04:08:26 55° SSE 04:09:27 64° ESE 04:15:24 10° NE
Meteor 2-3 Rocket 3.6 04:04:11 10° N 04:09:58 87° W 04:11:03 61° S
Meteor 2-10 4.4 04:11:13 48° SSE 04:12:38 66° E 04:18:02 10° NNE
Cosmos 2242 Rocket 3.7 04:14:02 72° ESE 04:14:08 72° E 04:18:43 10° NNE
Abrixas rocket 4.5 04:17:14 22° N 04:17:14 22° N 04:19:42 10° NE
ATLAS CENTAUR R/B 2.5 04:17:23 10° NNW 04:20:01 35° NNW 04:20:01 35° NNW
Cosmos 1726 4.0 04:24:52 22° NNW 04:24:52 22° NNW 04:26:34 10° N
CZ-2D R/B 2.0 04:20:32 10° N 04:25:50 79° WNW 04:26:44 61° SW
Cosmos 1943 3.1 04:25:33 59° SW 04:26:31 73° WNW 04:32:11 10° NNE
Cosmos 839 Rocket 4.2 04:19:09 10° NW 04:27:13 68° WSW 04:33:43 10° SSE
UNK 4.0 04:30:55 52° WNW 04:30:55 52° WNW 04:34:53 10° NNW
Cosmos 494 Rocket 3.9 04:30:01 60° WSW 04:30:45 69° WNW 04:36:01 10° NNE
Cosmos 1709 Rocket 3.9 04:27:43 10° N 04:34:06 79° W 04:37:51 26° S
PSLV R/B 4.0 04:35:27 52° E 04:35:27 52° E 04:38:08 10° E
Cosmos 2369 Rocket 2.1 04:32:33 10° NNW 04:38:05 62° WSW 04:41:03 28° S
Cosmos 1455 2.1 04:40:22 78° S 04:40:38 90° NE 04:44:33 10° N
CZ-4B R/B 4.1 04:36:59 10° NNE 04:42:02 43° E 04:46:45 11° S
Cosmos 1302 Rocket 3.8 04:37:10 10° NNW 04:42:27 81° WSW 04:47:38 10° SSE
IRS-1D 4.0 04:38:37 10° N 04:43:33 44° WNW 04:44:24 41° W
Cosmos 389 Rocket 3.2 04:45:45 38° SE 04:46:41 50° E 04:50:05 10° NNE
Cosmos 1733 Rocket 2.9 04:47:13 10° N 04:51:37 82° W 04:53:57 27° S
ARIANE 5 R/B 3.4 04:50:25 10° N 04:55:03 33° WNW 04:56:01 31° W
Cosmos 2074 Rocket 4.3 04:49:39 10° N 04:55:52 68° E 05:02:03 10° SSE
Cosmos 2184 Rocket 4.3 04:52:24 10° N 04:58:48 69° E 05:05:07 10° SSE
BREEZE-M DEB (TANK) 4.3 05:00:33 21° SSE 05:01:11 23° SE 05:04:13 10° ENE
Cosmos 1184 Rocket 2.7 04:58:31 10° NNW 05:01:58 77° W 05:02:58 43° S
Resurs 1-4 Rocket 2.8 04:58:25 10° N 05:03:11 36° WNW 05:04:42 30° WSW
Cosmos 1943 Rocket 2.1 04:59:04 10° NNW 05:04:46 88° WSW 05:10:25 10° SSE
Cosmos 2263 4.4 05:04:19 10° NW 05:09:52 48° WSW 05:15:22 10° S
SeaSat 1 2.4 05:05:32 10° SSE 05:10:23 60° WSW 05:15:17 10° NNW
PAYLOAD B 4.2 05:04:50 10° NNE 05:10:25 84° ESE 05:15:35 12° SSW
ERS-2 4.4 05:09:15 10° NW 05:10:23 12° NW 05:10:23 12° NW
USA 234 4.0 05:09:16 10° NE 05:15:21 42° NNW 05:19:56 17° W
Okean O Rocket 1.6 05:12:23 10° N 05:16:50 66° WNW 05:19:41 21° SSW
Cosmos 1408 2.8 05:13:53 10° N 05:17:37 72° E 05:21:21 10° SSE
Cosmos 2221 Rocket 4.2 05:13:47 10° S 05:18:08 57° E 05:22:28 10° NNE
Cosmos 1825 2.3 05:15:15 10° N 05:19:04 76° E 05:22:49 10° SSE
Cosmos 1908 Rocket 3.5 05:15:00 10° N 05:19:24 88° E 05:23:46 10° S
ADEOS II 3.3 05:14:29 10° NNE 05:19:29 42° E 05:24:25 10° SSE
Okean-O 3.8 05:15:54 10° NNE 05:20:09 42° E 05:24:20 10° S
Cosmos 1862 3.2 05:17:12 10° N 05:21:12 89° E 05:25:10 10° S
USA 129 4.3 05:23:31 12° NE 05:23:31 12° NE 05:23:49 10° NNE
Pageos (A) 3.4 05:21:33 10° NNW 05:23:17 42° WNW 05:23:17 42° WNW
Thor Agena Rocket 3.5 05:20:13 10° SSE 05:25:20 90° W 05:30:35 10° NNW
UNKNOWN OBJECT B 4.2 05:24:00 10° NNW 05:26:43 19° WNW 05:27:12 19° W
Cosmos 2285 Rocket 4.0 05:21:43 10° NNW 05:28:11 89° E 05:34:34 10° SSE
CZ-4B R/B 2.6 05:26:12 10° N 05:29:50 64° WNW 05:32:44 16° SSW
Sich 1 Rocket 3.7 05:28:05 10° NNW 05:32:21 52° W 05:36:37 10° S
Cosmos 1869 4.3 05:31:15 23° WSW 05:32:39 28° WNW 05:36:08 10° NNW
CZ-3 R/B 4.4 04:53:09 10° W 05:35:18 40° SW 05:46:10 10° SSE
NAVSTAR 52 R/B(PAM-D 3.5 05:35:39 34° SSE 05:35:39 34° SSE 05:37:05 10° ESE
ATLAS 5 CENTAUR R/B 2.6 05:33:05 19° WSW 05:36:07 40° NW 05:41:05 10° NNE
Cosmos 1933 3.4 05:32:40 13° SSW 05:36:14 58° W 05:40:18 10° N
SL-27 R/B 2.8 05:34:01 21° SW 05:36:15 50° WNW 05:39:49 10° N
CZ-4C R/B 4.5 05:33:50 10° NW 05:36:34 13° NNW 05:39:27 10° N
Cosmos 1703 Rocket 3.5 05:32:16 10° S 05:36:45 78° W 05:41:15 10° N
USA 32 4.0 05:31:34 10° S 05:36:48 81° W 05:42:05 10° N
Cosmos 1656 Rocket 3.7 05:32:40 10° NNW 05:38:07 82° ENE 05:43:32 10° SSE
SL-08 ROCKET BODY 4.4 05:32:41 10° NNW 05:38:37 62° W 05:44:36 10° S
Cosmos 1992 Rocket 3.9 05:33:50 10° NNW 05:39:05 82° WSW 05:44:18 10° SSE
CZ-2C R/B 4.4 05:43:52 10° SSW 05:47:46 30° W 05:51:40 10° NW
SL-16 R/B 4.1 05:50:55 12° W 05:52:08 13° W 05:54:40 10° WNW
Abrixas rocket 4.0 05:51:44 10° NW 05:54:43 29° NNE 05:57:43 10° ENE
ADEOS Rocket 3.6 05:47:57 10° NNE 05:55:42 84° WNW 06:03:27 10° SSW
Aureole 3 Rocket 4.0 05:48:23 10° SSW 05:55:46 68° W 06:00:59 10° N
Atlas Centaur 2 3.9 05:53:58 10° SSW 05:57:04 17° SSE 06:00:36 10° ESE
CENTAUR R/B 2.9 05:52:48 12° SW 05:58:28 53° NW 06:05:15 10° NNE
PSLV R/B 3.6 05:54:56 10° N 05:59:16 63° WNW 06:03:36 10° SSW
USA 116 4.3 05:56:42 10° S 06:01:21 71° W 06:06:32 10° NNW
CZ-2D R/B 4.1 06:03:57 10° NW 06:05:00 11° WNW 06:06:02 10° WNW
Cosmos 676 Rocket 4.4 06:00:15 10° S 06:05:22 67° ESE 06:10:32 10° NNE
COSMOS 2406 3.6 06:02:03 10° SW 06:07:36 47° WNW 06:13:10 10° NNE
Okean 2 Rocket 3.3 06:07:06 10° NNW 06:11:28 52° W 06:15:51 10° S
PSLV R/B 3.2 06:08:48 10° W 06:12:14 77° SSW 06:15:37 10° ESE
Meteor 2-13 Rocket 4.4 06:10:42 10° N 06:16:46 84° W 06:22:49 10° S
